EW4338 Weather Reports


time (UTC)temp
C
wind
direction
speed
KPH
gust
KPH
rain 1hr
cm
rain 24hr
cm
rain mn
cm
humidity
%
barometer
mb
20220812172544 25 54 0.0 0.0 0.00 0.00 0.00 39 1019.6
20220812172043 24 16 0.0 0.0 0.00 0.00 0.00 42 1019.6
20220812171543 24 32 0.0 0.0 0.00 0.00 0.00 38 1019.7
20220812171044 25 32 0.0 0.0 0.00 0.00 0.00 41 1019.7
20220812170535 24 15 0.0 0.0 0.00 0.00 0.00 44 1019.8
20220812170051 24 4 0.0 0.0 0.00 0.00 0.00 40 1019.7
20220812165541 24 18 0.0 0.0 0.00 0.00 0.00 40 1019.8
20220812165033 24 59 0.0 0.0 0.00 0.00 0.00 44 1019.9
20220812164604 24 19 0.0 0.0 0.00 0.00 0.00 41 1019.9
20220812164037 24 9 0.0 0.0 0.00 0.00 0.00 42 1020.0
20220812163529 24 28 0.0 0.0 0.00 0.00 0.00 42 1019.9
20220812163028 24 31 0.0 0.0 0.00 0.00 0.00 43 1019.9
20220812162527 24 35 0.0 0.0 0.00 0.00 0.00 41 1019.9
20220812162029 24 42 0.0 0.0 0.00 0.00 0.00 40 1020.0
20220812161525 24 41 0.0 0.0 0.00 0.00 0.00 40 1019.9
20220812161009 24 49 0.0 0.0 0.00 0.00 0.00 41 1020.0
20220812160502 24 38 0.0 0.0 0.00 0.00 0.00 41 1020.0
20220812160107 23 34 0.0 0.0 0.00 0.00 0.00 42 1020.1
20220812155508 23 46 0.0 0.0 0.00 0.00 0.00 42 1020.1
20220812155006 23 67 0.0 0.0 0.00 0.00 0.00 42 1020.1
20220812154504 23 8 0.0 0.0 0.00 0.00 0.00 43 1020.0
20220812154007 23 98 0.0 0.0 0.00 0.00 0.00 43 1020.0
20220812153502 22 88 0.0 0.0 0.00 0.00 0.00 43 1020.0
20220812153001 22 76 0.0 0.0 0.00 0.00 0.00 44 1020.1
20220812152602 22 73 0.0 0.0 0.00 0.00 0.00 45 1020.1
20220812152058 22 49 0.0 0.0 0.00 0.00 0.00 43 1020.1
20220812151612 22 86 0.0 0.0 0.00 0.00 0.00 44 1020.0
20220812151055 22 92 0.0 0.0 0.00 0.00 0.00 44 1020.0
20220812150556 22 88 0.0 0.0 0.00 0.00 0.00 44 1020.1
20220812150059 22 73 0.0 0.0 0.00 0.00 0.00 46 1020.1
20220812145556 21 60 0.0 0.0 0.00 0.00 0.00 45 1020.1
20220812145050 21 57 0.0 0.0 0.00 0.00 0.00 45 1020.0
20220812144549 21 69 0.0 0.0 0.00 0.00 0.00 44 1020.0
20220812144052 21 66 0.0 0.0 0.00 0.00 0.00 45 1020.1
20220812143553 21 75 0.0 0.0 0.00 0.00 0.00 46 1020.0
20220812143049 21 91 0.0 0.0 0.00 0.00 0.00 46 1020.0
20220812142546 21 91 0.0 0.0 0.00 0.00 0.00 45 1019.9
20220812142045 21 94 0.0 0.0 0.00 0.00 0.00 44 1019.8
20220812141551 21 104 0.0 0.0 0.00 0.00 0.00 44 1019.7
20220812141046 20 235 0.0 0.0 0.00 0.00 0.00 44 1019.6
20220812140540 21 235 0.0 0.0 0.00 0.00 0.00 43 1019.5
20220812140105 21 235 0.0 0.0 0.00 0.00 0.00 43 1019.5
20220812135534 21 78 0.0 0.0 0.00 0.00 0.00 44 1019.5
20220812135033 21 78 0.0 0.0 0.00 0.00 0.00 48 1019.5
20220812134600 21 235 0.0 0.0 0.00 0.00 0.00 45 1019.5
20220812134030 21 235 0.0 0.0 0.00 0.00 0.00 48 1019.5
20220812133527 20 235 0.0 0.0 0.00 0.00 0.00 48 1019.4
20220812133032 20 235 0.0 0.0 0.00 0.00 0.00 47 1019.4
20220812132530 19 235 0.0 0.0 0.00 0.00 0.00 49 1019.3
20220812132028 18 235 0.0 0.0 0.00 0.00 0.00 49 1019.2
20220812131525 18 235 0.0 0.0 0.00 0.00 0.00 51 1019.3
20220812131020 18 235 0.0 0.0 0.00 0.00 0.00 51 1019.2
20220812130524 18 235 0.0 0.0 0.00 0.00 0.00 50 1019.1
20220812130050 18 235 0.0 0.0 0.00 0.00 0.00 49 1019.1
20220812125524 18 7 0.0 0.0 0.00 0.00 0.00 47 1019.1
20220812125017 18 17 0.0 0.0 0.00 0.00 0.00 52 1019.1
20220812124515 17 17 0.0 0.0 0.00 0.00 0.00 52 1019.2
20220812124014 17 17 0.0 0.0 0.00 0.00 0.00 52 1019.1
20220812123519 17 19 0.0 0.0 0.00 0.00 0.00 51 1019.1
20220812123018 17 19 0.0 0.0 0.00 0.00 0.00 48 1019.1
20220812122515 17 24 0.0 0.0 0.00 0.00 0.00 48 1019.0
20220812122014 18 28 0.0 0.0 0.00 0.00 0.00 47 1018.9
20220812121506 18 42 0.0 0.0 0.00 0.00 0.00 46 1018.8
20220812121009 18 17 0.0 0.0 0.00 0.00 0.00 45 1018.7
20220812120510 18 19 0.0 0.0 0.00 0.00 0.00 45 1018.7
20220812120009 18 22 0.0 0.0 0.00 0.00 0.00 44 1018.6
20220812115502 19 16 0.0 0.0 0.00 0.00 0.00 43 1018.5
20220812115103 20 19 0.0 0.0 0.00 0.00 0.00 42 1018.3
20220812114638 20 23 0.0 0.0 0.00 0.00 0.00 41 1018.2
20220812114101 20 360 0.0 0.0 0.00 0.00 0.00 40 1018.2
20220812113557 20 235 0.0 0.0 0.00 0.00 0.00 38 1018.1
20220812113111 20 235 0.0 0.0 0.00 0.00 0.00 39 1018.0
20220812112558 20 235 0.0 0.0 0.00 0.00 0.00 39 1017.9
20220812112057 20 235 0.0 0.0 0.00 0.00 0.00 40 1017.8
20220812111606 20 235 0.0 0.0 0.00 0.00 0.00 40 1017.6
20220812111054 20 235 0.0 0.0 0.00 0.00 0.00 39 1017.7
20220812110558 20 11 0.0 0.0 0.00 0.00 0.00 39 1017.7
20220812110055 20 11 0.0 0.0 0.00 0.00 0.00 40 1017.7
20220812105558 20 11 0.0 0.0 0.00 0.00 0.00 40 1017.7
20220812105053 20 11 0.0 0.0 0.00 0.00 0.00 40 1017.8
20220812104553 20 11 0.0 0.0 0.00 0.00 0.00 41 1017.7
20220812104052 20 11 0.0 0.0 0.00 0.00 0.00 41 1017.7
20220812103553 20 11 0.0 0.0 0.00 0.00 0.00 41 1017.7
20220812103052 20 11 0.0 0.0 0.00 0.00 0.00 41 1017.7
20220812102552 20 11 0.0 0.0 0.00 0.00 0.00 41 1017.6
20220812102052 20 11 0.0 0.0 0.00 0.00 0.00 39 1017.6
20220812101548 21 11 0.0 0.0 0.00 0.00 0.00 38 1017.6
20220812101054 21 11 0.0 0.0 0.00 0.00 0.00 38 1017.7
20220812100547 21 319 0.0 0.0 0.00 0.00 0.00 36 1017.6
20220812100047 21 318 0.0 0.0 0.00 0.00 0.00 36 1017.6
20220812095546 21 235 0.0 0.0 0.00 0.00 0.00 36 1017.5
20220812095049 21 235 0.0 0.0 0.00 0.00 0.00 36 1017.5
20220812094545 21 235 0.0 0.0 0.00 0.00 0.00 37 1017.4
20220812094054 21 321 0.0 0.0 0.00 0.00 0.00 38 1017.4
20220812093547 21 235 0.0 0.0 0.00 0.00 0.00 38 1017.3
20220812093050 21 235 0.0 0.0 0.00 0.00 0.00 38 1017.3
20220812092546 21 235 0.0 0.0 0.00 0.00 0.00 39 1017.3
20220812092045 21 235 0.0 0.0 0.00 0.00 0.00 39 1017.3
20220812091642 21 235 0.0 0.0 0.00 0.00 0.00 39 1017.2
20220812091043 22 235 0.0 0.0 0.00 0.00 0.00 38 1017.3
20220812090544 22 235 0.0 0.0 0.00 0.00 0.00 39 1017.3
20220812090059 21 235 0.0 0.0 0.00 0.00 0.00 39 1017.3
20220812085646 21 235 0.0 0.0 0.00 0.00 0.00 39 1017.3
20220812085041 21 235 0.0 0.0 0.00 0.00 0.00 39 1017.3
20220812084553 21 235 0.0 0.0 0.00 0.00 0.00 39 1017.3
20220812084045 21 235 0.0 0.0 0.00 0.00 0.00 39 1017.3
20220812083540 21 235 0.0 0.0 0.00 0.00 0.00 39 1017.2
20220812083050 21 235 0.0 0.0 0.00 0.00 0.00 40 1017.3
20220812082539 21 235 0.0 0.0 0.00 0.00 0.00 39 1017.2
20220812082040 21 235 0.0 0.0 0.00 0.00 0.00 39 1017.2
20220812081539 21 235 0.0 0.0 0.00 0.00 0.00 39 1017.1
20220812081040 21 235 0.0 0.0 0.00 0.00 0.00 39 1017.1
20220812080543 21 235 0.0 0.0 0.00 0.00 0.00 39 1017.0
20220812080119 21 235 0.0 0.0 0.00 0.00 0.00 39 1017.0
20220812075538 21 235 0.0 0.0 0.00 0.00 0.00 39 1017.1
20220812075039 21 235 0.0 0.0 0.00 0.00 0.00 39 1017.0
20220812074541 21 235 0.0 0.0 0.00 0.00 0.00 39 1017.1
20220812074043 21 235 0.0 0.0 0.00 0.00 0.00 38 1017.1
20220812073536 21 235 0.0 0.0 0.00 0.00 0.00 38 1017.0
20220812073050 21 235 0.0 0.0 0.00 0.00 0.00 39 1016.9
20220812072535 21 235 0.0 0.0 0.00 0.00 0.00 39 1016.9
20220812072033 21 235 0.0 0.0 0.00 0.00 0.00 39 1016.9
20220812071534 21 235 0.0 0.0 0.00 0.00 0.00 39 1017.0
20220812071033 21 235 0.0 0.0 0.00 0.00 0.00 39 1017.0
20220812070533 21 235 0.0 0.0 0.00 0.00 0.00 39 1017.0
20220812070046 21 235 0.0 0.0 0.00 0.00 0.00 39 1016.9
20220812065536 21 235 0.0 0.0 0.00 0.00 0.00 39 1017.0
20220812065032 21 235 0.0 0.0 0.00 0.00 0.00 38 1017.1
20220812064538 21 235 0.0 0.0 0.00 0.00 0.00 38 1017.0
20220812064031 21 235 0.0 0.0 0.00 0.00 0.00 39 1017.0
20220812063531 21 235 0.0 0.0 0.00 0.00 0.00 39 1017.0
20220812063050 21 235 0.0 0.0 0.00 0.00 0.00 39 1017.1
20220812062526 21 235 0.0 0.0 0.00 0.00 0.00 39 1017.1
20220812062030 21 235 0.0 0.0 0.00 0.00 0.00 39 1017.3
20220812061525 21 235 0.0 0.0 0.00 0.00 0.00 39 1017.3
20220812061033 21 235 0.0 0.0 0.00 0.00 0.00 39 1017.3
20220812060532 22 91 0.0 0.0 0.00 0.00 0.00 39 1017.4
20220812060027 22 97 0.0 0.0 0.00 0.00 0.00 39 1017.3
20220812055524 22 19 0.0 0.0 0.00 0.00 0.00 40 1017.3
20220812055022 22 19 0.0 0.0 0.00 0.00 0.00 40 1017.2
20220812054526 22 8 0.0 0.0 0.00 0.00 0.00 41 1017.2
20220812054025 22 6 0.0 0.0 0.00 0.00 0.00 41 1017.2
20220812053522 22 11 0.0 0.0 0.00 0.00 0.00 40 1017.3
20220812053032 22 26 0.0 0.0 0.00 0.00 0.00 39 1017.2
20220812052522 22 21 0.0 0.0 0.00 0.00 0.00 39 1017.1
20220812052021 22 21 0.0 0.0 0.00 0.00 0.00 38 1017.1
20220812051541 23 235 0.0 0.0 0.00 0.00 0.00 37 1017.0
20220812051023 23 235 0.0 0.0 0.00 0.00 0.00 36 1017.0
20220812050522 23 235 0.0 0.0 0.00 0.00 0.00 36 1017.0
20220812050050 23 235 0.0 0.0 0.00 0.00 0.00 36 1017.0
20220812045524 23 235 0.0 0.0 0.00 0.00 0.00 36 1017.0
20220812045027 22 235 0.0 0.0 0.00 0.00 0.00 37 1017.0
20220812044535 22 235 0.0 0.0 0.00 0.00 0.00 37 1017.0
20220812044020 22 235 0.0 0.0 0.00 0.00 0.00 37 1017.0
20220812043522 22 235 0.0 0.0 0.00 0.00 0.00 37 1017.0
20220812043031 23 235 0.0 0.0 0.00 0.00 0.00 37 1017.0
20220812042520 22 235 0.0 0.0 0.00 0.00 0.00 37 1017.0
20220812042019 22 235 0.0 0.0 0.00 0.00 0.00 38 1017.0
20220812041519 22 235 0.0 0.0 0.00 0.00 0.00 38 1017.0
20220812041023 22 235 0.0 0.0 0.00 0.00 0.00 39 1017.0
20220812040521 22 235 0.0 0.0 0.00 0.00 0.00 40 1017.0
20220812040019 22 235 0.0 0.0 0.00 0.00 0.00 40 1016.9
20220812035525 22 235 0.0 0.0 0.00 0.00 0.00 40 1016.9
20220812035025 22 235 0.0 0.0 0.00 0.00 0.00 41 1016.9
20220812034536 22 235 0.0 0.0 0.00 0.00 0.00 42 1016.9
20220812034019 22 235 0.0 0.0 0.00 0.00 0.00 40 1016.9
20220812033525 22 235 0.0 0.0 0.00 0.00 0.00 39 1017.0
20220812033024 23 235 0.0 0.0 0.00 0.00 0.00 39 1016.8
20220812032517 23 235 0.0 0.0 0.00 0.00 0.00 38 1016.8
20220812032019 23 235 0.0 0.0 0.00 0.00 0.00 38 1016.8
20220812031530 23 235 0.0 0.0 0.00 0.00 0.00 37 1016.7
20220812031017 23 88 0.0 0.0 0.00 0.00 0.00 37 1016.6
20220812030517 25 67 0.0 0.0 0.00 0.00 0.00 33 1016.6
20220812030022 25 235 0.0 0.0 0.00 0.00 0.00 33 1016.5
20220812025519 25 235 0.0 0.0 0.00 0.00 0.00 34 1016.4
20220812025025 24 235 0.0 0.0 0.00 0.00 0.00 34 1016.4
20220812024516 23 235 0.0 0.0 0.00 0.00 0.00 35 1016.4
20220812024019 23 235 0.0 0.0 0.00 0.00 0.00 37 1016.3
20220812023516 23 235 0.0 0.0 0.00 0.00 0.00 37 1016.2
20220812023015 23 235 0.0 0.0 0.00 0.00 0.00 37 1016.1
20220812022519 23 235 0.0 0.0 0.00 0.00 0.00 37 1016.0
20220812022015 24 235 0.0 0.0 0.00 0.00 0.00 36 1015.9
20220812021515 24 235 0.0 0.0 0.00 0.00 0.00 36 1015.8
20220812021014 24 235 0.0 0.0 0.00 0.00 0.00 36 1015.7
20220812020520 24 323 0.0 0.0 0.00 0.00 0.00 36 1015.7
20220812020028 24 323 0.0 0.0 0.00 0.00 0.00 36 1015.8
20220812015514 24 323 0.0 0.0 0.00 0.00 0.00 36 1015.8
20220812015016 25 323 0.0 0.0 0.00 0.00 0.00 36 1015.7
20220812014535 25 323 0.0 0.0 0.00 0.00 0.00 36 1015.8
20220812014013 25 323 0.0 0.0 0.00 0.00 0.00 37 1015.8
20220812013513 25 323 0.0 0.0 0.00 0.00 0.00 37 1015.9
20220812013013 25 323 0.0 0.0 0.00 0.00 0.00 37 1015.8
20220812012513 25 323 0.0 0.0 0.00 0.00 0.00 37 1015.8
20220812012016 25 323 0.0 0.0 0.00 0.00 0.00 37 1015.9
20220812011517 26 323 0.0 0.0 0.00 0.00 0.00 37 1015.8
20220812011015 26 323 0.0 0.0 0.00 0.00 0.00 37 1015.8
20220812010519 26 323 0.0 0.0 0.00 0.00 0.00 37 1015.8
20220812010012 26 323 0.0 0.0 0.00 0.00 0.00 36 1015.8
20220812005512 26 323 0.0 0.0 0.00 0.00 0.00 35 1015.9
20220812005011 26 323 0.0 0.0 0.00 0.00 0.00 35 1015.9
20220812004511 27 323 0.0 0.0 0.00 0.00 0.00 34 1016.0
20220812004017 27 325 0.0 0.0 0.00 0.00 0.00 35 1016.1
20220812003515 27 332 0.0 0.0 0.00 0.00 0.00 34 1016.0
20220812003014 27 332 0.0 0.0 0.00 0.00 0.00 34 1016.1
20220812002509 27 333 0.0 0.0 0.00 0.00 0.00 34 1016.1
20220812002009 27 235 0.0 0.0 0.00 0.00 0.00 34 1016.1
20220812001508 27 235 0.0 0.0 0.00 0.00 0.00 35 1016.1
20220812001009 27 38 0.0 0.0 0.00 0.00 0.00 36 1016.2
20220812000507 27 38 0.0 0.0 0.00 0.00 0.00 36 1016.2
20220812000007 27 38 0.0 0.0 0.00 0.00 0.00 37 1016.2
20220811235507 27 38 0.0 0.0 0.00 0.00 0.00 34 1016.2
20220811235007 27 38 0.0 0.0 0.00 0.00 0.00 36 1016.3
20220811234506 27 38 0.0 0.0 0.00 0.00 0.00 34 1016.3
20220811234008 26 38 0.0 0.0 0.00 0.00 0.00 35 1016.3
20220811233507 26 38 0.0 0.0 0.00 0.00 0.00 34 1016.4
20220811233004 26 38 0.0 0.0 0.00 0.00 0.00 36 1016.5
20220811232506 26 38 0.0 0.0 0.00 0.00 0.00 35 1016.4
20220811232003 26 38 0.0 0.0 0.00 0.00 0.00 36 1016.5
20220811231503 26 38 0.0 0.0 0.00 0.00 0.00 36 1016.5
20220811231009 26 38 0.0 0.0 0.00 0.00 0.00 37 1016.6
20220811230509 26 38 0.0 0.0 0.00 0.00 0.00 37 1016.6
20220811230006 26 40 0.0 0.0 0.00 0.00 0.00 36 1016.6
20220811225505 26 21 0.0 0.0 0.00 0.00 0.00 36 1016.5
20220811225004 26 29 0.0 0.0 0.00 0.00 0.00 35 1016.5
20220811224502 26 49 0.0 0.0 0.00 0.00 0.00 34 1016.5
20220811224004 27 32 0.0 0.0 0.00 0.00 0.00 35 1016.5
20220811223604 27 57 0.0 0.0 0.00 0.00 0.00 34 1016.6
20220811223100 27 59 0.0 0.0 0.00 0.00 0.00 33 1016.5
20220811222604 27 68 0.0 0.0 0.00 0.00 0.00 33 1016.6
20220811222105 27 50 0.0 0.0 0.00 0.00 0.00 33 1016.6
20220811221624 27 42 0.0 0.0 0.00 0.00 0.00 33 1016.6
20220811221103 28 38 0.0 0.0 0.00 0.00 0.00 32 1016.7
20220811220601 28 356 0.0 0.0 0.00 0.00 0.00 32 1016.7
20220811220103 29 12 0.0 0.0 0.00 0.00 0.00 32 1016.7
20220811215557 28 7 0.0 0.0 0.00 0.00 0.00 33 1016.7
20220811215057 28 12 0.0 0.0 0.00 0.00 0.00 32 1016.8
20220811214556 28 5 0.0 0.0 0.00 0.00 0.00 31 1016.8
20220811214058 28 13 0.0 0.0 0.00 0.00 0.00 32 1016.9
20220811213555 28 9 0.0 0.0 0.00 0.00 0.00 31 1016.9
20220811213138 28 10 0.0 0.0 0.00 0.00 0.00 32 1017.0
20220811212553 28 25 0.0 0.0 0.00 0.00 0.00 31 1017.1
20220811212053 28 34 0.0 0.0 0.00 0.00 0.00 31 1017.2
20220811211558 28 16 0.0 0.0 0.00 0.00 0.00 31 1017.1
20220811211058 28 9 0.0 0.0 0.00 0.00 0.00 34 1017.0
20220811210551 28 7 0.0 0.0 0.00 0.00 0.00 32 1017.0
20220811210055 28 9 0.0 0.0 0.00 0.00 0.00 33 1017.0
20220811205551 28 22 0.0 0.0 0.00 0.00 0.00 30 1017.0
20220811205048 28 29 0.0 0.0 0.00 0.00 0.00 33 1017.1
20220811204559 28 7 0.0 0.0 0.00 0.00 0.00 33 1017.1
20220811204049 28 4 0.0 0.0 0.00 0.00 0.00 34 1017.2
20220811203549 28 29 0.0 0.0 0.00 0.00 0.00 31 1017.3
20220811203046 28 15 0.0 0.0 0.00 0.00 0.00 34 1017.3
20220811202548 28 44 0.0 0.0 0.00 0.00 0.00 33 1017.5
20220811202045 28 56 0.0 0.0 0.00 0.00 0.00 33 1017.5
20220811201543 27 7 0.0 0.0 0.00 0.00 0.00 35 1017.6
20220811201042 27 41 0.0 0.0 0.00 0.00 0.00 34 1017.6
20220811200543 27 52 0.0 0.0 0.00 0.00 0.00 33 1017.8
20220811200041 27 40 0.0 0.0 0.00 0.00 0.00 32 1017.7
20220811195544 27 21 0.0 0.0 0.00 0.00 0.00 32 1017.8
20220811195039 27 22 0.0 0.0 0.00 0.00 0.00 36 1017.8
20220811194606 27 67 0.0 0.0 0.00 0.00 0.00 35 1017.8
20220811194040 27 42 0.0 0.0 0.00 0.00 0.00 35 1017.9
20220811193542 27 10 0.0 0.0 0.00 0.00 0.00 37 1018.0
20220811193103 27 71 0.0 0.0 0.00 0.00 0.00 36 1018.1
20220811192537 27 21 0.0 0.0 0.00 0.00 0.00 36 1018.1
20220811192039 27 45 0.0 0.0 0.00 0.00 0.00 36 1018.1
20220811191546 27 46 0.0 0.0 0.00 0.00 0.00 36 1018.1
20220811191037 27 8 0.0 0.0 0.00 0.00 0.00 39 1018.1
20220811190535 27 12 0.0 0.0 0.00 0.00 0.00 38 1018.1
20220811190034 27 23 0.0 0.0 0.00 0.00 0.00 40 1018.1
20220811185605 27 46 0.0 0.0 0.00 0.00 0.00 39 1018.2
20220811185037 26 36 0.0 0.0 0.00 0.00 0.00 39 1018.2
20220811184540 26 44 0.0 0.0 0.00 0.00 0.00 38 1018.2
20220811184039 26 25 0.0 0.0 0.00 0.00 0.00 37 1018.2
20220811183532 26 16 0.0 0.0 0.00 0.00 0.00 39 1018.3
20220811183037 27 14 0.0 0.0 0.00 0.00 0.00 38 1018.3
20220811182530 27 27 0.0 0.0 0.00 0.00 0.00 39 1018.3
20220811182029 27 19 0.0 0.0 0.00 0.00 0.00 38 1018.3
20220811181528 27 37 0.0 0.0 0.00 0.00 0.00 36 1018.3
20220811181035 27 24 0.0 0.0 0.00 0.00 0.00 36 1018.4
20220811180528 27 21 0.0 0.0 0.00 0.00 0.00 38 1018.4
20220811180025 26 40 0.0 0.0 0.00 0.00 0.00 37 1018.4
20220811175525 26 30 0.0 0.0 0.00 0.00 0.00 38 1018.4
20220811175022 26 50 0.0 0.0 0.00 0.00 0.00 38 1018.5
20220811174528 26 37 0.0 0.0 0.00 0.00 0.00 37 1018.5
20220811174025 27 5 0.0 0.0 0.00 0.00 0.00 36 1018.5
20220811173521 26 19 0.0 0.0 0.00 0.00 0.00 38 1018.5
20220811173018 26 20 0.0 0.0 0.00 0.00 0.00 36 1018.6